TimeEDT,TemperatureF,Dew PointF,Humidity,Sea Level PressureIn,VisibilityMPH,Wind Direction,Wind SpeedMPH,Gust SpeedMPH,PrecipitationIn,Events,Conditions,WindDirDegrees,DateUTC
12:54 AM,68.0,61.0,78,30.10,10.0,Calm,Calm,-,N/A,,Clear,0,2012-10-05 04:54:00
1:54 AM,66.9,61.0,81,30.11,9.0,NW,3.5,-,N/A,,Clear,320,2012-10-05 05:54:00
2:54 AM,66.0,61.0,84,30.10,6.0,WNW,4.6,-,N/A,,Haze,300,2012-10-05 06:54:00
3:54 AM,66.9,62.1,84,30.10,7.0,NW,4.6,-,N/A,,Clear,310,2012-10-05 07:54:00
4:54 AM,66.0,60.1,81,30.11,10.0,NW,5.8,-,N/A,,Clear,310,2012-10-05 08:54:00
5:54 AM,64.0,57.9,80,30.11,10.0,NNW,4.6,-,N/A,,Clear,330,2012-10-05 09:54:00
6:54 AM,64.0,57.0,78,30.12,9.0,NW,4.6,-,N/A,,Clear,320,2012-10-05 10:54:00
7:54 AM,64.0,57.0,78,30.12,6.0,NW,4.6,-,N/A,,Haze,320,2012-10-05 11:54:00
8:54 AM,69.1,57.9,68,30.12,10.0,NNW,5.8,-,N/A,,Scattered Clouds,330,2012-10-05 12:54:00
9:54 AM,73.9,57.0,55,30.12,10.0,North,6.9,-,N/A,,Scattered Clouds,350,2012-10-05 13:54:00
10:54 AM,78.1,55.9,46,30.12,10.0,North,9.2,-,N/A,,Scattered Clouds,350,2012-10-05 14:54:00
11:54 AM,80.1,55.9,43,30.10,10.0,NNE,8.1,-,N/A,,Partly Cloudy,20,2012-10-05 15:54:00
12:54 PM,81.0,55.0,41,30.09,10.0,NNE,4.6,-,N/A,,Partly Cloudy,20,2012-10-05 16:54:00
1:54 PM,82.0,54.0,38,30.05,10.0,NNW,8.1,-,N/A,,Scattered Clouds,340,2012-10-05 17:54:00
2:54 PM,81.0,54.0,39,30.04,10.0,NNW,4.6,-,N/A,,Clear,330,2012-10-05 18:54:00
3:54 PM,79.0,57.0,47,30.03,10.0,SSW,10.4,-,N/A,,Partly Cloudy,210,2012-10-05 19:54:00
4:54 PM,75.9,57.9,54,30.02,10.0,SSW,10.4,-,N/A,,Mostly Cloudy,200,2012-10-05 20:54:00
5:54 PM,75.0,59.0,57,30.02,10.0,SSW,9.2,-,N/A,,Partly Cloudy,210,2012-10-05 21:54:00
6:54 PM,71.1,60.1,68,30.03,10.0,SW,4.6,-,N/A,,Partly Cloudy,220,2012-10-05 22:54:00
7:54 PM,68.0,59.0,73,30.02,10.0,Calm,Calm,-,N/A,,Clear,0,2012-10-05 23:54:00
8:54 PM,68.0,60.1,76,30.02,10.0,SW,3.5,-,N/A,,Clear,220,2012-10-06 00:54:00
9:54 PM,66.9,57.9,73,30.02,10.0,WSW,6.9,-,N/A,,Clear,240,2012-10-06 01:54:00
10:54 PM,68.0,55.9,65,30.01,10.0,WSW,8.1,-,N/A,,Clear,250,2012-10-06 02:54:00
11:54 PM,66.9,59.0,76,29.99,10.0,SW,8.1,-,N/A,,Clear,230,2012-10-06 03:54:00